Location: *
(6.0000°S, 32.3997°W)
Time: 21:45:48
(UTC+00:00)

CZ-2C R/B - Pass Details

Date: 01 April 2020
Orbit: 639 x 705 km, 98.4° (Epoch: 02 June)

Event Time Altitude Azimuth Distance (km) Brightness Sun altitude
Rises 21:05:38 0° 28° (NNE) 3,015 6.8 -13.5°
Reaches altitude 10° 21:08:01 10° 37° (NE) 2,094 5.9 -14.1°
Maximum altitude 21:12:11 35° 103° (ESE) 1,068 4.2 -15.1°
Drops below altitude 10° 21:16:17 10° 168° (SSE) 2,070 6.1 -16.2°
Sets 21:18:38 0° 177° (S) 2,975 7.0 -16.7°
